Location: Julian California
(33.0790°N, 116.6010°W)
Time: 10:33:20
(UTC-07:00)

Cosmos 1844 Rocket - Pass Details

Date: 14 June 2018
Orbit: 824 x 845 km, 71.0° (Epoch: 18 October)

Event Time Altitude Azimuth Distance (km) Brightness Sun altitude
Exits shadow 23:12:10 75° 302° (WNW) 871 2.7 -29.3°
Drops below altitude 10° 23:17:43 10° 17° (NNE) 2,459 5.7 -29.7°
Sets 23:20:11 0° 19° (NNE) 3,394 6.5 -29.9°
